Estación de San Rafael

Ultimos registro cada 15 minutos 50
Estación Fecha / Hora Temperatura Humedad Lluvia Velocidad Dirección Radiación Presion
50 San Rafael 03-05-2026 12:15 15,8 72,3 0 0 79 224,4 999,2
49 San Rafael 03-05-2026 12:00 16,5 70,9 0 0 77 333,1 999,2
48 San Rafael 03-05-2026 11:45 15,5 71,2 0 0 77 235,6 999,3
47 San Rafael 03-05-2026 11:30 15,6 75,9 0 0 77 391,9 999
46 San Rafael 03-05-2026 11:15 14,4 78,7 0 0 79 294,4 999,6
45 San Rafael 03-05-2026 11:00 14,2 78,4 0 0 79 265,6 999,8
44 San Rafael 03-05-2026 10:45 14,3 79,9 0 0 79 283,1 999,7
43 San Rafael 03-05-2026 10:30 14 82 0 0 53 274,4 999,8
42 San Rafael 03-05-2026 10:15 13,8 84,3 0 0 8 581,9 999,8
41 San Rafael 03-05-2026 10:00 11,6 92,5 0 0 41 521,9 999,8
40 San Rafael 03-05-2026 09:45 10,2 97,2 0 0 146 356,9 999,9
39 San Rafael 03-05-2026 09:30 9,3 98,5 0 0 157 238,1 999,9
38 San Rafael 03-05-2026 09:15 7,2 98,5 0 0 140 323,1 999,9
37 San Rafael 03-05-2026 09:00 7 98,8 0 0 136 221,9 999,7
36 San Rafael 03-05-2026 08:45 5,9 99 0 0 136 233,1 999,8
35 San Rafael 03-05-2026 08:30 4,4 99,3 0 0 136 164,4 999,9
34 San Rafael 03-05-2026 08:15 4,2 99,4 0 0 136 111,9 999,3
33 San Rafael 03-05-2026 08:00 2,6 99,5 0 0 136 99,4 999,2
32 San Rafael 03-05-2026 07:45 1 99,7 0 0 136 30,6 999,4
31 San Rafael 03-05-2026 07:30 -0,2 99,7 0 0 136 6,9 999,1
30 San Rafael 03-05-2026 07:15 -0,3 99,6 0 0 136 0,6 999,1
29 San Rafael 03-05-2026 07:00 0 99,7 0 0 136 0,6 999
28 San Rafael 03-05-2026 06:45 -0,1 99,4 0 0 136 0,6 998,7
27 San Rafael 03-05-2026 06:30 0,5 99,6 0 0 136 0,6 998,3
26 San Rafael 03-05-2026 06:15 0,7 99,4 0 0 136 0,6 998,3
25 San Rafael 03-05-2026 06:00 0,2 99,4 0 0 136 0,6 998,3
24 San Rafael 03-05-2026 05:45 0,4 99,4 0 0 136 0,6 998,4
23 San Rafael 03-05-2026 05:30 0,6 99,4 0 0 136 0,6 998,3
22 San Rafael 03-05-2026 05:15 1 99,3 0 0 136 0,6 998,1
21 San Rafael 03-05-2026 05:00 1,2 99,6 0 0 136 0,6 998,4
20 San Rafael 03-05-2026 04:45 0,8 99,3 0 0 136 0,6 998,5
19 San Rafael 03-05-2026 04:30 0,9 99,4 0 0 136 0,6 998,8
18 San Rafael 03-05-2026 04:15 0,8 99,2 0 0 136 0,6 998,9
17 San Rafael 03-05-2026 04:00 1 99,2 0 0 136 0,6 999,1
16 San Rafael 03-05-2026 03:45 1,2 99,1 0 0 136 0,6 998,9
15 San Rafael 03-05-2026 03:30 1,3 98,9 0 0 136 0,6 999
14 San Rafael 03-05-2026 03:15 1,7 98,9 0 0 136 0,6 999,3
13 San Rafael 03-05-2026 03:00 2,3 98,8 0 0 136 0,6 999,3
12 San Rafael 03-05-2026 02:45 2,6 98,9 0 0 136 0,6 999,2
11 San Rafael 03-05-2026 02:30 2,6 98,7 0 0 136 0,6 999,4
10 San Rafael 03-05-2026 02:15 2,6 98,7 0 0 136 0,6 999,2
9 San Rafael 03-05-2026 02:00 2,5 98,7 0 0 136 0,6 999,4
8 San Rafael 03-05-2026 01:45 2 98,5 0 0 136 0,6 999,2
7 San Rafael 03-05-2026 01:30 1,9 98,5 0 0 136 0,6 999,4
6 San Rafael 03-05-2026 01:15 1,8 98,3 0 0 136 0,6 999,2
5 San Rafael 03-05-2026 01:00 1,9 98,5 0 0 136 0,6 999,3
4 San Rafael 03-05-2026 00:45 1,9 98,1 0 0 136 0,6 998,8
3 San Rafael 03-05-2026 00:30 2,3 98,2 0 0 136 0,6 998,9
2 San Rafael 03-05-2026 00:15 2,8 97,9 0 0 136 0,6 998,9
1 San Rafael 03-05-2026 00:00 3,3 98 0 0 136 0,6 998,9